Regional Weather Roundup
Issued by NWS

Home | Current Version | Previous Version | Text Only | Print | Product List | Glossary Off
Versions: 1 2 3 4 5 6 7 8 9 10 11 12 13 14 15 16 17 18 19 20 21 22 23 24 25 26 27

000
ASUS45 KCYS 222310
RWRWY

WYOMING REGIONAL WEATHER ROUNDUP
NATIONAL WEATHER SERVICE CHEYENNE WY
500 PM MDT SAT APR 22 2017

NOTE:  "FAIR" INDICATES FEW OR NO CLOUDS BELOW 12,000 FEET
WITH NO SIGNIFICANT WEATHER AND/OR OBSTRUCTIONS TO VISIBILITY.

WYZ001-230000-
YELLOWSTONE NATIONAL PARK

CITY           SKY/WX    TMP DP  RH WIND       PRES   REMARKS
LK YELLOWSTONE   N/A     44  21  40 W8        30.15F
W YELLOWSTONE  NOT AVBL

$$
WYZ002>013-054>058-071-098>099-230000-
NORTHERN WYOMING

CITY           SKY/WX    TMP DP  RH WIND       PRES   REMARKS
JACKSON        MOSUNNY   54  25  32 SW10      30.11F
CODY           FAIR      56  38  50 SE15G22   30.04F
GREYBULL       FAIR      56  34  43 SE10G22   30.07F
WORLAND        FAIR      58  38  47 S13G22    30.08F
SHERIDAN       FAIR      58  39  49 SE15      30.04F
BUFFALO        FAIR      57  32  38 S24G33    30.05F
GILLETTE       FAIR      56  37  49 SW16G22   30.11F
HULETT         FAIR      61  34  36 S15G22    30.11F
NEWCASTLE      FAIR      59  30  33 S14G25    30.15F

$$
WYZ014>020-022>026-101>103-230000-
CENTRAL WYOMING

CITY           SKY/WX    TMP DP  RH WIND       PRES   REMARKS
BIG PINEY      FAIR      53  19  26 S15G21    30.17F
PINEDALE       FAIR      52  21  30 S8G18     30.18F
DUBOIS         FAIR      52  19  28 SW9G18    30.11F
LANDER         FAIR      58  30  34 CALM      30.06F
RIVERTON       FAIR      59  27  29 S15G24    30.07F
CASPER         FAIR      57  32  38 SW13      30.12F
DOUGLAS        FAIR      57  32  38 SE12      30.15F

$$
WYZ021-027>030-104>119-230000-
SOUTHERN WYOMING

CITY           SKY/WX    TMP DP  RH WIND       PRES   REMARKS
EVANSTON       FAIR      53  24  32 VRB5      30.13F
KEMMERER         N/A     52  18  25 CALM      30.16F
FORT BRIDGER   FAIR      57  23  26 S6        30.17F
ROCK SPRINGS   FAIR      55  15  20 S10       30.15F
DIXON            N/A     56  21  24 SW6G12    30.18F
RAWLINS        FAIR      54  19  25 SE6       30.15F
SARATOGA       FAIR      54  21  28 S9        30.18F
LARAMIE        FAIR      47  28  47 S12G20    30.20F
CHEYENNE       FAIR      50  29  44 S13       30.22F
TORRINGTON     PTSUNNY   63  24  22 S15       30.16F
PINE BLUFFS    FAIR      55  28  35 SW13G20   30.23S

$$




USA.gov is the U.S. government's official web portal to all federal, state and local government web resources and services.